Location: Unspecified
(52.1971°N, 0.0000°E)
Time: 02:28:42
(UTC+00:00)

YUBILEINY - Pass Details

Date: 14 December 2019
Orbit: 1478 x 1509 km, 82.5° (Epoch: 25 January)

Event Time Altitude Azimuth Distance (km) Brightness Sun altitude
Rises 04:13:11 0° 341° (NNW) 4,614 ? -33.5°
Reaches altitude 10° 04:20:43 10° 23° (NNE) 3,629 ? -32.3°
Maximum altitude 04:21:32 10° 29° (NNE) 3,618 ? -32.2°
Drops below altitude 10° 04:22:22 10° 34° (NE) 3,628 ? -32.1°
Sets 04:29:51 0° 76° (ENE) 4,606 ? -31.0°
